sat.trackr.live / text

‹ back to catalog

STARLINK-3812

NORAD 52346 · 2022-045R

PAYLOAD ACTIVE UNKNOWN

§ Identity

Operator
Country
US
Launch date
2022-04-29
Launch site
AFETR
Launch vehicle
Mass (kg)
RCS (m²)

Purposes: comms

External: N2YO · Heavens-Above · Gunter

§ Orbital elements

Epoch: 2026-05-25T05:10:24.769344Z

Period
95.44 min
Inclination
53.2141°
Eccentricity
0.0001184
Mean motion
15.08835681 rev/d
Perigee alt
538.9 km
Apogee alt
540.6 km
Semi-major
6,917.9 km
B*
-7.8499e-5
RAAN
215.5909°
Arg perigee
82.5590°
Mean anomaly
277.5537°
Rev number
22,733

§ Raw data

STARLINK-38121 52346U 22045R   26145.21556446 -.00001537  00000+0 -78499-4 0  99922 52346  53.2141 215.5909 0001184  82.5590 277.5537 15.08835681227330

JSON: /api/v1/satellites/52346 · /tle

For live sub-satellite position, see the globe view (requires WebGL).

§ Visibility from observer

Set your observer location to see the next 7 days of passes ≥ 10°. The values pass through the URL so the page stays shareable.

No JS? Fill the form by hand. The geolocation button needs JavaScript.